This demonstration page uses our WeatherBlox Daily Observations layout. Learn more.

Left ArrowRight Arrow

39.29038, -76.61219

Hourly Observations for August 26, 2015

Temp ( °F °C ) Dew Point ( °F °C ) Humidity (%) Winds ( mph kmh ) Pressure ( in mb ) Visibility ( mi km ) Precip ( " mm )
12:54 am 00:54 undefined 72 22.2 54 12.2 53 53 undefined N/A 29.96 1014 N/A 0.00 0.00
1:54 am 01:54 undefined 72 22.2 53 11.7 52 52 undefined N/A 29.96 1015 N/A 0.00 0.00
2:54 am 02:54 undefined 71 21.7 53 11.7 53 53 undefined N/A 29.96 1015 N/A 0.00 0.00
3:54 am 03:54 undefined 71 21.7 52 11.1 51 51 undefined N/A 29.97 1015 N/A 0.00 0.00
4:54 am 04:54 undefined 70 21.1 52 11.1 53 53 undefined N/A 29.98 1015 N/A 0.00 0.00
5:54 am 05:54 undefined 69 20.6 52 11.1 55 55 undefined N/A 29.99 1016 N/A 0.00 0.00
6:54 am 06:54 undefined 69 20.6 52 11.1 55 55 undefined N/A 30.01 1016 N/A 0.00 0.00
7:54 am 07:54 undefined 70 21.1 52 11.1 53 53 undefined N/A 30.02 1017 N/A 0.00 0.00
8:54 am 08:54 undefined 71 21.7 52 11.1 51 51 undefined N/A 30.03 1017 N/A 0.00 0.00
9:54 am 09:54 undefined 72 22.2 51 10.6 48 48 undefined N/A 30.04 1017 N/A 0.00 0.00
10:54 am 10:54 undefined 74 23.3 51 10.6 45 45 undefined N/A 30.05 1018 N/A 0.00 0.00
11:54 am 11:54 undefined 76 24.4 52 11.1 43 43 undefined N/A 30.05 1018 N/A 0.00 0.00
12:54 pm 12:54 undefined 76 24.4 51 10.6 42 42 undefined N/A 30.04 1017 N/A 0.00 0.00
1:54 pm 13:54 undefined 76 24.4 51 10.6 42 42 undefined N/A 30.04 1017 N/A 0.00 0.00
2:54 pm 14:54 undefined 79 26.1 52 11.1 39 39 undefined N/A 30.02 1017 N/A 0.00 0.00
3:54 pm 15:54 undefined 79 26.1 52 11.1 39 39 undefined N/A 30.01 1016 N/A 0.00 0.00
4:54 pm 16:54 undefined 79 26.1 52 11.1 39 39 undefined N/A 30.00 1016 N/A 0.00 0.00
5:54 pm 17:54 undefined 78 25.6 50 10 37 37 undefined N/A 29.99 1016 N/A 0.00 0.00
6:54 pm 18:54 undefined 77 25 49 9.4 37 37 undefined N/A 30.00 1016 N/A 0.00 0.00
7:54 pm 19:54 undefined 76 24.4 51 10.6 42 42 undefined N/A 30.02 1017 N/A 0.00 0.00
8:54 pm 20:54 undefined 75 23.9 51 10.6 43 43 undefined N/A 30.04 1017 N/A 0.00 0.00
9:54 pm 21:54 undefined 74 23.3 52 11.1 46 46 undefined N/A 30.06 1018 N/A 0.00 0.00
10:54 pm 22:54 undefined 73 22.8 54 12.2 51 51 undefined N/A 30.07 1018 N/A 0.00 0.00
11:54 pm 23:54 undefined 71 21.7 55 12.8 57 57 undefined N/A 30.08 1019 N/A 0.00 0.00

Powered by AerisWeather